Regional Weather Roundup
Issued by NWS Charleston, WV

Home | Current Version | Previous Version | Graphics & Text | Print | Product List | Glossary On
Versions: 1 2 3 4 5 6 7 8 9 10 11 12 13 14 15 16 17 18 19 20 21 22 23 24 25 26 27 28 29 30 31 32 33 34 35 36 37 38 39 40 41 42 43 44 45 46 47 48 49 50
000
ASUS41 KRLX 250310
RWRRLX
West Virginia Regional Weather Roundup
National Weather Service Charleston WV
1100 PM EDT MON JUL 24 2017

Note: "fair" indicates few or no clouds below 12,000 feet with no
significant weather and/or obstructions to visibility.

WVZ003-250400-
Northern Panhandle of West Virginia

CITY           SKY/WX    TMP DP  RH WIND       PRES   REMARKS
WHEELING       PTCLDY    63  56  78 NW6       30.06R
$$

WVZ009-250400-
Northwest West Virginia

CITY           SKY/WX    TMP DP  RH WIND       PRES   REMARKS
PARKERSBURG    MOCLDY    69  61  75 N6        30.07R
$$

WVZ006-250400-
Western West Virginia

CITY           SKY/WX    TMP DP  RH WIND       PRES   REMARKS
HUNTINGTON     CLOUDY    75  66  73 N5        30.03R
$$

WVZ015-250400-
West Central West Virginia

CITY           SKY/WX    TMP DP  RH WIND       PRES   REMARKS
CHARLESTON     PTCLDY    74  66  76 NW6       30.03R
$$

WVZ022-031-250400-
North Central West Virginia

CITY           SKY/WX    TMP DP  RH WIND       PRES   REMARKS
CLARKSBURG     MOCLDY    70  61  73 NW6       30.04R
MORGANTOWN     CLOUDY    69  58  67 N8G20     30.05R
$$

WVZ025-035-042-045-250400-
Southern West Virginia

CITY           SKY/WX    TMP DP  RH WIND       PRES   REMARKS
BECKLEY        PTCLDY    68  66  93 CALM      30.09R
LOGAN            N/A     72  70  94 CALM      30.06R
BLUEFIELD      PTCLDY    67  63  87 W5        30.12R
LEWISBURG      PTCLDY    67  65  91 CALM      30.07S
$$

WVZ047-250400-
Northern Mountains of West Virginia

CITY           SKY/WX    TMP DP  RH WIND       PRES   REMARKS
ELKINS         CLOUDY    71  64  78 NW10      30.05R
$$

WVZ052-250400-
Eastern Panhandle of West Virginia

CITY           SKY/WX    TMP DP  RH WIND       PRES   REMARKS
MARTINSBURG    CLOUDY    77  64  64 N6        29.93R
PETERSBURG     PTCLDY    77  67  71 N3        29.98R
$$



USA.gov is the U.S. government's official web portal to all federal, state and local government web resources and services.